Regional Weather Roundup
Issued by NWS Bismarck, ND

Home | Current Version | Previous Version | Text Only | Print | Product List | Glossary On
Versions: 1 2 3 4 5 6 7 8 9 10 11 12 13 14 15 16 17 18 19 20 21 22 23 24 25 26 27 28 29 30 31 32 33 34 35 36 37 38 39 40 41 42 43 44 45 46 47 48 49 50
000
ASUS43 KBIS 300102
RWRBIS

NWR BROADCAST TEXT
NATIONAL WEATHER SERVICE BISMARCK ND
800 PM CDT FRI JUL 29 2016

NOTE: "FAIR" INDICATES FEW OR NO CLOUDS BELOW 12,000 FEET WITH NO
SIGNIFICANT WEATHER AND/OR OBSTRUCTIONS TO VISIBILITY.


CITY           SKY/WX    TMP DP  RH WIND       PRES   REMARKS
WILLISTON      MOSUNNY   80  48  32 CALM      29.97S
MINOT          MOSUNNY   81  57  43 SW8       29.96F
MINOT AFB      MOSUNNY   77  59  53 SW5       29.95S
BISMARCK       MOSUNNY   77  62  59 S12       29.97F
DICKINSON      SUNNY     76  56  49 NE7       29.96F
GARRISON         N/A     76  62  62 CALM      29.97F
HETTINGER ARPT PTSUNNY   83  49  30 SW6       29.98F
JAMESTOWN      SUNNY     74  63  68 S6        29.99F
CARRINGTON     FAIR      73  63  68 S8        30.01F
HAZEN          FAIR      77  57  50 E5        29.98F
OAKES            N/A    N/A N/A N/A MISG        N/A
STANLEY        FAIR      75  59  57 CALM      30.01S
$$

CITY           SKY/WX    TMP DP  RH WIND       PRES   REMARKS
GRAND FORKS    PTCLDY    78  56  46 E3        29.97F
GRAND FORKS AF PTCLDY    77  55  47 CALM      29.99F
DEVILS LAKE    CLOUDY    74  60  61 SE7       30.00S
FARGO          CLEAR     77  61  57 NE3       29.99S
GRAFTON        FAIR      75  57  53 CALM      30.00S
GWINNER        FAIR      79  64  61 CALM      30.01S
LANGDON        FAIR      75  59  57 SE5       30.01F
ROLLA          FAIR      72  59  64 S8        30.01S
$$

CITY           SKY/WX    TMP DP  RH WIND       PRES   REMARKS
MOBRIDGE       MOSUNNY   82  55  39 SE9       29.96S
BUFFALO          N/A     81  51  35 VRB3      29.92F
RAPID CITY     SUNNY     76  55  48 VRB3      30.01F
GLASGOW        MOSUNNY   78  57  48 E9        29.94F
SIDNEY         SUNNY     80  44  27 NE5       29.96F
WOLF POINT     SUNNY     82  50  32 CALM      29.96F
GLENDIVE       SUNNY     79  50  36 E6        29.97F
MILES CITY     SUNNY     81  53  37 NE9       29.96F
BAKER          SUNNY     80  54  40 NW6       29.99F
$$

CITY           SKY/WX    TMP DP  RH WIND       PRES   REMARKS
BILLINGS       MOSUNNY   85  48  27 E12       29.98S
GREAT FALLS    SUNNY     85  45  24 E9G20     29.97F
$$





USA.gov is the U.S. government's official web portal to all federal, state and local government web resources and services.